TBV8001 SBFI-SBPA

Flight info

Callsign TBV8001
Flight time 0h 51m
Altitude 39000
Route UTBUB UL216 NOBEL
Aircraft A359/H-SDE2E3GHIJ3J4J5LM1ORWXY/LB1D1

Departure

Time 2026-04-26 00:14
Airport Cataratas International Airport (SBFI)

Arrival

Time 2026-04-26 01:06
Airport Porto Alegre-Salgado Filho International Airport (SBPA)
Time Latitude Longitude Altitude Speed Heading
2026-04-25 23:56 -25.59726 -54.48801 805 ft 0 kts 221°
2026-04-26 00:06 -25.59720 -54.48795 795 ft 4 kts 215°
2026-04-26 00:06 -25.59696 -54.48785 815 ft 4 kts 178°
2026-04-26 00:06 -25.59672 -54.48792 805 ft 4 kts 140°
2026-04-26 00:06 -25.59665 -54.48798 805 ft 0 kts 130°
2026-04-26 00:11 -25.59674 -54.48787 805 ft 8 kts 130°
2026-04-26 00:11 -25.59705 -54.48748 805 ft 0 kts 130°
2026-04-26 00:12 -25.59713 -54.48736 805 ft 8 kts 130°
2026-04-26 00:13 -25.59770 -54.48662 804 ft 16 kts 130°
2026-04-26 00:13 -25.59814 -54.48603 804 ft 2 kts 128°
2026-04-26 00:13 -25.60022 -54.48169 806 ft 4 kts 309°
2026-04-26 00:13 -25.59944 -54.48270 804 ft 45 kts 310°
2026-04-26 00:14 -25.59565 -54.48752 805 ft 120 kts 310°
2026-04-26 00:14 -25.58888 -54.49604 998 ft 161 kts 314°
2026-04-26 00:14 -25.58155 -54.50469 1976 ft 155 kts 312°
2026-04-26 00:14 -25.57399 -54.51451 2402 ft 182 kts 310°
2026-04-26 00:15 -25.56525 -54.52612 2847 ft 206 kts 310°
2026-04-26 00:15 -25.55607 -54.53852 3639 ft 210 kts 307°
2026-04-26 00:15 -25.55009 -54.55324 4565 ft 213 kts 282°
2026-04-26 00:15 -25.55168 -54.56951 5498 ft 220 kts 251°
2026-04-26 00:16 -25.56164 -54.58359 6008 ft 252 kts 220°
2026-04-26 00:16 -25.57740 -54.59397 6623 ft 272 kts 211°
2026-04-26 00:16 -25.59409 -54.60372 7499 ft 277 kts 212°
2026-04-26 00:16 -25.61114 -54.61388 8540 ft 279 kts 213°
2026-04-26 00:17 -25.62820 -54.62428 9629 ft 280 kts 214°
2026-04-26 00:17 -25.64539 -54.63492 10526 ft 290 kts 214°
2026-04-26 00:17 -25.66369 -54.64640 10947 ft 315 kts 214°
2026-04-26 00:17 -25.68327 -54.65870 11551 ft 330 kts 214°
2026-04-26 00:18 -25.70344 -54.67132 12400 ft 335 kts 214°
2026-04-26 00:18 -25.72387 -54.68413 13298 ft 340 kts 214°
2026-04-26 00:18 -25.74473 -54.69688 14112 ft 346 kts 212°
2026-04-26 00:18 -25.76712 -54.70671 14874 ft 356 kts 201°
2026-04-26 00:19 -25.79188 -54.71119 15633 ft 368 kts 188°
2026-04-26 00:19 -25.81780 -54.70903 16388 ft 381 kts 174°
2026-04-26 00:19 -25.84336 -54.69965 17158 ft 394 kts 160°
2026-04-26 00:19 -25.86683 -54.68297 17817 ft 410 kts 144°
2026-04-26 00:20 -25.88627 -54.65924 18479 ft 422 kts 127°
2026-04-26 00:20 -25.89971 -54.63000 19099 ft 431 kts 110°
2026-04-26 00:20 -25.90577 -54.59717 19710 ft 438 kts 94°
2026-04-26 00:20 -25.90729 -54.56317 20317 ft 444 kts 92°
2026-04-26 00:21 -25.91185 -54.52963 20904 ft 448 kts 107°
2026-04-26 00:21 -25.92410 -54.49791 21520 ft 448 kts 122°
2026-04-26 00:21 -25.94001 -54.46796 22122 ft 452 kts 125°
2026-04-26 00:21 -25.95659 -54.43799 22722 ft 458 kts 125°
2026-04-26 00:22 -25.97334 -54.40771 23316 ft 463 kts 125°
2026-04-26 00:22 -25.99022 -54.37707 23834 ft 468 kts 125°
2026-04-26 00:22 -26.00726 -54.34604 24339 ft 473 kts 125°
2026-04-26 00:22 -26.02448 -54.31462 24829 ft 479 kts 125°
2026-04-26 00:23 -26.04188 -54.28283 25379 ft 483 kts 125°
2026-04-26 00:23 -26.05918 -54.25119 25906 ft 488 kts 125°
2026-04-26 00:23 -26.07688 -54.21880 26436 ft 492 kts 125°
2026-04-26 00:23 -26.09471 -54.18612 26970 ft 497 kts 125°
2026-04-26 00:24 -26.11269 -54.15315 27474 ft 501 kts 125°
2026-04-26 00:24 -26.13171 -54.12046 27971 ft 503 kts 131°
2026-04-26 00:24 -26.15506 -54.09182 28474 ft 498 kts 144°
2026-04-26 00:24 -26.18252 -54.06875 29020 ft 494 kts 153°
2026-04-26 00:25 -26.21088 -54.04788 29534 ft 497 kts 154°
2026-04-26 00:25 -26.23993 -54.02683 30038 ft 501 kts 154°
2026-04-26 00:25 -26.26927 -54.00552 30464 ft 505 kts 154°
2026-04-26 00:25 -26.29879 -53.98400 30893 ft 509 kts 153°
2026-04-26 00:26 -26.32847 -53.96230 31333 ft 512 kts 153°
2026-04-26 00:26 -26.35838 -53.94040 31758 ft 516 kts 153°
2026-04-26 00:26 -26.38846 -53.91835 32193 ft 520 kts 153°
2026-04-26 00:26 -26.41876 -53.89611 32591 ft 523 kts 153°
2026-04-26 00:27 -26.44926 -53.87372 32996 ft 527 kts 153°
2026-04-26 00:27 -26.47955 -53.85146 33388 ft 530 kts 153°
2026-04-26 00:27 -26.51042 -53.82876 33781 ft 533 kts 153°
2026-04-26 00:27 -26.54145 -53.80591 34125 ft 536 kts 153°
2026-04-26 00:28 -26.57269 -53.78290 34439 ft 539 kts 153°
2026-04-26 00:28 -26.60401 -53.75982 34805 ft 540 kts 153°
2026-04-26 00:28 -26.63535 -53.73670 35255 ft 539 kts 153°
2026-04-26 00:28 -26.66650 -53.71372 35809 ft 535 kts 153°
2026-04-26 00:29 -26.69747 -53.69073 36273 ft 534 kts 153°
2026-04-26 00:29 -26.72841 -53.66770 36689 ft 533 kts 153°
2026-04-26 00:29 -26.75881 -53.64505 37098 ft 532 kts 153°
2026-04-26 00:29 -26.78961 -53.62213 37528 ft 531 kts 153°
2026-04-26 00:30 -26.82043 -53.59930 37932 ft 531 kts 153°
2026-04-26 00:30 -26.85120 -53.57655 38360 ft 530 kts 153°
2026-04-26 00:30 -26.88194 -53.55387 38736 ft 528 kts 153°
2026-04-26 00:30 -26.91267 -53.53120 38918 ft 530 kts 154°
2026-04-26 00:31 -26.94340 -53.50852 38964 ft 529 kts 153°
2026-04-26 00:31 -27.00498 -53.46297 38962 ft 531 kts 154°
2026-04-26 00:32 -27.06624 -53.41771 38964 ft 532 kts 154°
2026-04-26 00:32 -27.15856 -53.34849 38962 ft 533 kts 153°
2026-04-26 00:33 -27.21980 -53.30147 38971 ft 534 kts 153°
2026-04-26 00:33 -27.28076 -53.25477 38965 ft 534 kts 154°
2026-04-26 00:34 -27.34266 -53.20889 38963 ft 532 kts 155°
2026-04-26 00:34 -27.40471 -53.16355 38974 ft 532 kts 155°
2026-04-26 00:35 -27.46677 -53.11802 38967 ft 533 kts 155°
2026-04-26 00:35 -27.52831 -53.07259 38971 ft 532 kts 155°
2026-04-26 00:36 -27.59031 -53.02679 38974 ft 533 kts 156°
2026-04-26 00:36 -27.65213 -52.98043 38975 ft 534 kts 154°
2026-04-26 00:37 -27.71350 -52.93317 38978 ft 534 kts 154°
2026-04-26 00:37 -27.77472 -52.88659 38993 ft 534 kts 155°
2026-04-26 00:38 -27.83637 -52.84007 38983 ft 533 kts 155°
2026-04-26 00:38 -27.89812 -52.79347 38982 ft 533 kts 155°
2026-04-26 00:39 -27.95979 -52.74679 39000 ft 533 kts 155°
2026-04-26 00:39 -28.01104 -52.70791 38986 ft 533 kts 155°
2026-04-26 00:40 -28.08270 -52.65349 38984 ft 534 kts 155°
2026-04-26 00:40 -28.14432 -52.60660 38900 ft 532 kts 155°
2026-04-26 00:41 -28.17510 -52.58317 38667 ft 534 kts 155°
2026-04-26 00:41 -28.20599 -52.55966 38388 ft 536 kts 155°
2026-04-26 00:41 -28.23695 -52.53607 38110 ft 537 kts 155°
2026-04-26 00:41 -28.26781 -52.51250 37566 ft 533 kts 155°
2026-04-26 00:42 -28.29806 -52.48936 36926 ft 531 kts 155°
2026-04-26 00:42 -28.32865 -52.46597 36270 ft 531 kts 155°
2026-04-26 00:42 -28.35928 -52.44255 35603 ft 531 kts 156°
2026-04-26 00:42 -28.38998 -52.41909 34884 ft 532 kts 156°
2026-04-26 00:43 -28.42073 -52.39559 34105 ft 535 kts 156°
2026-04-26 00:43 -28.45172 -52.37188 33259 ft 537 kts 155°
2026-04-26 00:43 -28.48260 -52.34816 32642 ft 534 kts 155°
2026-04-26 00:43 -28.51331 -52.32450 32051 ft 531 kts 155°
2026-04-26 00:44 -28.54377 -52.30101 31468 ft 528 kts 155°
2026-04-26 00:44 -28.57371 -52.27793 30853 ft 526 kts 155°
2026-04-26 00:44 -28.60390 -52.25469 30288 ft 523 kts 155°
2026-04-26 00:44 -28.63399 -52.23152 29642 ft 521 kts 155°
2026-04-26 00:45 -28.66392 -52.20852 29019 ft 517 kts 155°
2026-04-26 00:45 -28.68364 -52.19333 28632 ft 514 kts 155°
2026-04-26 00:45 -28.72305 -52.16293 27882 ft 510 kts 154°
2026-04-26 00:45 -28.75235 -52.14031 27283 ft 507 kts 154°
2026-04-26 00:46 -28.78099 -52.11816 26691 ft 503 kts 154°
2026-04-26 00:46 -28.80981 -52.09591 26144 ft 499 kts 154°
2026-04-26 00:46 -28.83846 -52.07376 25562 ft 496 kts 154°
2026-04-26 00:46 -28.86692 -52.05172 24970 ft 493 kts 153°
2026-04-26 00:47 -28.89520 -52.02980 24416 ft 489 kts 153°
2026-04-26 00:47 -28.92331 -52.00801 23822 ft 487 kts 153°
2026-04-26 00:47 -28.95121 -51.98636 23176 ft 484 kts 153°
2026-04-26 00:47 -28.97893 -51.96483 22559 ft 478 kts 152°
2026-04-26 00:48 -29.00616 -51.94366 21978 ft 471 kts 152°
2026-04-26 00:48 -29.03276 -51.92298 21402 ft 466 kts 152°
2026-04-26 00:48 -29.05933 -51.90236 20824 ft 459 kts 152°
2026-04-26 00:48 -29.08556 -51.88196 20257 ft 454 kts 152°
2026-04-26 00:49 -29.11152 -51.86172 19649 ft 449 kts 151°
2026-04-26 00:49 -29.13721 -51.84165 19085 ft 445 kts 151°
2026-04-26 00:49 -29.16263 -51.82180 18516 ft 441 kts 151°
2026-04-26 00:49 -29.18788 -51.80208 17884 ft 437 kts 151°
2026-04-26 00:50 -29.21187 -51.78091 17254 ft 436 kts 143°
2026-04-26 00:50 -29.23429 -51.75789 16692 ft 430 kts 142°
2026-04-26 00:50 -29.25578 -51.73516 16146 ft 423 kts 141°
2026-04-26 00:50 -29.27730 -51.71246 15569 ft 418 kts 141°
2026-04-26 00:51 -29.29859 -51.69010 15028 ft 413 kts 141°
2026-04-26 00:51 -29.31967 -51.66796 14467 ft 408 kts 141°
2026-04-26 00:51 -29.34048 -51.64610 13913 ft 404 kts 141°
2026-04-26 00:51 -29.36105 -51.62448 13325 ft 399 kts 141°
2026-04-26 00:52 -29.38131 -51.60319 12770 ft 392 kts 140°
2026-04-26 00:52 -29.40126 -51.58219 12234 ft 386 kts 140°
2026-04-26 00:52 -29.42058 -51.56184 11714 ft 379 kts 140°
2026-04-26 00:52 -29.43982 -51.54155 11191 ft 373 kts 140°
2026-04-26 00:53 -29.45883 -51.52152 10666 ft 368 kts 140°
2026-04-26 00:53 -29.47742 -51.50192 10386 ft 356 kts 140°
2026-04-26 00:53 -29.49513 -51.48319 10269 ft 338 kts 140°
2026-04-26 00:53 -29.51199 -51.46537 10152 ft 321 kts 140°
2026-04-26 00:54 -29.52807 -51.44838 10027 ft 307 kts 140°
2026-04-26 00:54 -29.54358 -51.43201 9737 ft 303 kts 140°
2026-04-26 00:54 -29.55895 -51.41582 9371 ft 304 kts 140°
2026-04-26 00:54 -29.57451 -51.39939 9043 ft 303 kts 140°
2026-04-26 00:55 -29.59000 -51.38301 8700 ft 301 kts 140°
2026-04-26 00:55 -29.60040 -51.37203 8479 ft 300 kts 140°
2026-04-26 00:55 -29.62312 -51.35502 8022 ft 292 kts 165°
2026-04-26 00:55 -29.64284 -51.35328 7717 ft 282 kts 193°
2026-04-26 00:56 -29.66166 -51.35892 7442 ft 279 kts 201°
2026-04-26 00:56 -29.68005 -51.36585 7159 ft 278 kts 201°
2026-04-26 00:56 -29.69819 -51.37275 6886 ft 278 kts 201°
2026-04-26 00:56 -29.71669 -51.37919 6598 ft 278 kts 196°
2026-04-26 00:57 -29.73571 -51.38335 6310 ft 279 kts 192°
2026-04-26 00:57 -29.75482 -51.38681 6017 ft 278 kts 191°
2026-04-26 00:57 -29.77386 -51.39016 5757 ft 276 kts 191°
2026-04-26 00:57 -29.79280 -51.39350 5473 ft 274 kts 191°
2026-04-26 00:58 -29.81161 -51.39683 5198 ft 273 kts 191°
2026-04-26 00:58 -29.83017 -51.40012 4986 ft 265 kts 191°
2026-04-26 00:58 -29.84795 -51.40325 4835 ft 252 kts 191°
2026-04-26 00:58 -29.85926 -51.40526 4746 ft 245 kts 191°
2026-04-26 00:59 -29.88087 -51.40911 4562 ft 230 kts 191°
2026-04-26 00:59 -29.89627 -51.41193 4446 ft 219 kts 191°
2026-04-26 00:59 -29.91099 -51.41464 4327 ft 209 kts 191°
2026-04-26 00:59 -29.92495 -51.41750 4206 ft 198 kts 194°
2026-04-26 01:00 -29.93819 -51.42081 4043 ft 192 kts 193°
2026-04-26 01:00 -29.94686 -51.42268 3885 ft 191 kts 191°
2026-04-26 01:00 -29.96003 -51.42422 3619 ft 191 kts 179°
2026-04-26 01:00 -29.97668 -51.41833 3256 ft 191 kts 146°
2026-04-26 01:01 -29.98533 -51.40702 2986 ft 189 kts 116°
2026-04-26 01:01 -29.98976 -51.39286 2808 ft 189 kts 99°
2026-04-26 01:01 -29.99052 -51.37777 2745 ft 188 kts 90°
2026-04-26 01:01 -29.99070 -51.36273 2709 ft 187 kts 91°
2026-04-26 01:02 -29.99089 -51.35281 2705 ft 187 kts 91°
2026-04-26 01:02 -29.99123 -51.33779 2592 ft 187 kts 92°
2026-04-26 01:02 -29.99162 -51.32284 2351 ft 187 kts 91°
2026-04-26 01:02 -29.99190 -51.30829 2100 ft 175 kts 91°
2026-04-26 01:03 -29.99216 -51.29490 1897 ft 161 kts 91°
2026-04-26 01:03 -29.99249 -51.27844 1602 ft 149 kts 91°
2026-04-26 01:03 -29.99264 -51.27054 1461 ft 142 kts 91°
2026-04-26 01:03 -29.99286 -51.25963 1281 ft 133 kts 91°
2026-04-26 01:04 -29.99307 -51.24915 1109 ft 130 kts 91°
2026-04-26 01:04 -29.99328 -51.23873 949 ft 130 kts 91°
2026-04-26 01:04 -29.99348 -51.22830 783 ft 130 kts 91°
2026-04-26 01:04 -29.99369 -51.21787 621 ft 130 kts 91°
2026-04-26 01:05 -29.99390 -51.20747 457 ft 130 kts 91°
2026-04-26 01:05 -29.99410 -51.19710 297 ft 129 kts 91°
2026-04-26 01:05 -29.99431 -51.18679 136 ft 129 kts 91°
2026-04-26 01:05 -29.99450 -51.17644 30 ft 129 kts 91°
2026-04-26 01:06 -29.99466 -51.16838 25 ft 49 kts 91°
2026-04-26 01:06 -29.99468 -51.16687 27 ft 15 kts 91°
2026-04-26 01:06 -29.99471 -51.16537 28 ft 22 kts 92°
2026-04-26 01:06 -29.99478 -51.16355 30 ft 14 kts 92°
2026-04-26 01:07 -29.99479 -51.16293 31 ft 1 kts 88°
2026-04-26 01:07 -29.99479 -51.16291 31 ft 0 kts 88°
2026-04-26 01:07 -29.99479 -51.16288 31 ft 0 kts 88°
2026-04-26 01:07 -29.99479 -51.16285 31 ft 4 kts 88°
2026-04-26 01:08 -29.99478 -51.16267 31 ft 0 kts 86°
2026-04-26 01:10 -29.99478 -51.16261 31 ft 0 kts 86°